Weather History for Cocoa Beach, FL

Change the Weather History Date:

Sunday, March 31, 2013

  Actual Average (KCOF) Record (KCOF)
Temperature  
Mean Temperature 68 °F -  
Max Temperature 78 °F 75 °F 86 °F (2012)
Min Temperature 59 °F 63 °F 50 °F (2003)
Cooling Degree Days 4    
Growing Degree Days 18 (Base 50)    
Moisture  
Dew Point 58 °F    
Average Humidity 70    
Maximum Humidity 87    
Minimum Humidity 47    
Precipitation  
Precipitation 0.00 in - - ()
Sea Level Pressure  
Sea Level Pressure 30.11 in    
Wind  
Wind Speed 5 mph (South)    
Max Wind Speed 16 mph    
Max Gust Speed 24 mph    
Visibility 10 miles    
Events      
Averages and records for this station are not official NWS values.
T = Trace of Precipitation, MM = Missing Value Source: NWS Daily Summary

Daily Weather History Graph

Daily Weather History Graph

Search for Another Location

Airport:

Trip Planner

Search our weather history database for the weather conditions in past years. The results will help you decide how hot, cold, wet, or windy it might be!

Date:

Astronomy

Mar. 31, 2013 Rise Set
Actual Time 7:13 AM EDT 7:39 PM EDT
Civil Twilight 6:49 AM EDT 8:03 PM EDT
Nautical Twilight 6:21 AM EDT 8:31 PM EDT
Astronomical Twilight 5:53 AM EDT 8:59 PM EDT
Moon No Moon Rise 10:20 AM EDT (3/31)
Length of Visible Light 13h 14m
Length of Day
12h 26m
Waning Gibbous, 78% of the Moon is Illuminated
Mar 31
Waning Gibbous
Apr 3
Last Quarter
Apr 10
New
Apr 18
First Quarter
Apr 25
Full

Hourly Weather History & Observations

Time (EDT) Temp. Dew Point Humidity Pressure Visibility Wind Dir Wind Speed Gust Speed Precip Events Conditions
12:58 AM 64.0 °F 54.5 °F 71% 30.19 in 10.0 mi Calm Calm - N/A   Clear
1:58 AM 62.4 °F 53.4 °F 72% 30.18 in 10.0 mi Calm Calm - N/A   Clear
2:58 AM 60.8 °F 53.1 °F 76% 30.16 in 10.0 mi SW 3.5 mph - N/A   Clear
3:58 AM 60.8 °F 52.9 °F 75% 30.15 in 10.0 mi West 2.3 mph - N/A   Clear
4:58 AM 61.0 °F 53.4 °F 76% 30.15 in 10.0 mi Calm Calm - N/A   Partly Cloudy
5:58 AM 60.8 °F 53.4 °F 77% 30.15 in 10.0 mi Calm Calm - N/A   Clear
6:58 AM 59.5 °F 53.8 °F 81% 30.16 in 10.0 mi Calm Calm - N/A   Clear
7:58 AM 60.6 °F 55.6 °F 83% 30.18 in 10.0 mi Calm Calm - N/A   Clear
8:58 AM 66.7 °F 56.5 °F 70% 30.19 in 10.0 mi West 2.3 mph - N/A   Mostly Cloudy
9:58 AM 70.9 °F 56.1 °F 59% 30.19 in 10.0 mi SSW 8.1 mph 17.3 mph N/A   Clear
10:58 AM 73.4 °F 55.4 °F 53% 30.17 in 10.0 mi South 11.5 mph 18.4 mph N/A   Clear
11:58 AM 75.9 °F 54.3 °F 47% 30.16 in 10.0 mi South 12.7 mph 16.1 mph N/A   Clear
12:58 PM 76.8 °F 55.6 °F 48% 30.15 in 10.0 mi South 6.9 mph - N/A   Clear
1:58 PM 77.7 °F 56.3 °F 48% 30.11 in 10.0 mi SE 8.1 mph - N/A   Clear
2:58 PM 78.4 °F 56.5 °F 47% 30.09 in 10.0 mi SSE 10.4 mph - N/A   Clear
3:58 PM 76.1 °F 61.0 °F 59% 30.07 in 10.0 mi SSE 13.8 mph - N/A   Clear
4:58 PM 75.7 °F 63.7 °F 66% 30.04 in 10.0 mi SSE 16.1 mph 24.2 mph N/A   Clear
5:58 PM 73.0 °F 64.8 °F 75% 30.03 in 10.0 mi SSE 16.1 mph - N/A   Clear
6:58 PM 72.3 °F 64.6 °F 77% 30.03 in 10.0 mi SSE 16.1 mph - N/A   Clear
7:58 PM 70.5 °F 63.9 °F 79% 30.03 in 10.0 mi SSE 8.1 mph 23.0 mph N/A   Clear
8:58 PM 70.0 °F 64.9 °F 84% 30.03 in 10.0 mi SSE 6.9 mph - N/A   Clear
9:58 PM 70.0 °F 65.5 °F 86% 30.03 in 10.0 mi South 15.0 mph 21.9 mph N/A   Clear
10:58 PM 70.0 °F 66.0 °F 87% 30.05 in 10.0 mi South 8.1 mph 19.6 mph N/A   Scattered Clouds
11:58 PM 69.6 °F 64.2 °F 83% 30.05 in 10.0 mi Calm Calm - N/A   Scattered Clouds